IU1FIL-3 Weather Reports


time (UTC)temp
F
wind
direction
speed
knots
gust
knots
rain 1hr
in
rain 24hr
in
rain mn
in
humidity
%
barometer
mb
20260505223349 55 0.0 0.0 0.00 0.00 0.00 10 1013.9
20260505222348 54 0.0 0.0 0.00 0.00 0.00 10 1014.1
20260505221345 54 0.0 0.0 0.00 0.00 0.00 10 1014.3
20260505220343 54 0.0 0.0 0.00 0.00 0.00 10 1014.4
20260505215824 54 0.0 0.0 0.00 0.00 0.00 10 1014.6
20260505214822 54 0.0 0.0 0.00 0.00 0.00 10 1015.1
20260505213820 54 0.0 0.0 0.00 0.00 0.00 10 1015.3
20260505212818 55 0.0 0.0 0.00 0.00 0.00 10 1015.2
20260505211817 54 0.0 0.0 0.00 0.00 0.00 10 1015.3
20260505210815 54 0.0 0.0 0.00 0.00 0.00 10 1015.3
20260505205813 54 0.0 0.0 0.00 0.00 0.00 10 1015.2
20260505204812 54 0.0 0.0 0.00 0.00 0.00 10 1015.5
20260505203810 54 0.0 0.0 0.00 0.00 0.00 10 1015.5
20260505202808 54 0.0 0.0 0.00 0.00 0.00 10 1015.5
20260505201807 54 0.0 0.0 0.00 0.00 0.00 10 1015.4
20260505200805 54 0.0 0.0 0.00 0.00 0.00 10 1015.3
20260505195802 54 0.0 0.0 0.00 0.00 0.00 10 1015.3
20260505194801 54 0.0 0.0 0.00 0.00 0.00 10 1015.2
20260505193759 54 0.0 0.0 0.00 0.00 0.00 10 1015.1
20260505192757 54 0.0 0.0 0.00 0.00 0.00 10 1014.9
20260505191755 54 0.0 0.0 0.00 0.00 0.00 10 1014.8
20260505190754 54 0.0 0.0 0.00 0.00 0.00 10 1014.8
20260505185752 55 0.0 0.0 0.00 0.00 0.00 10 1014.6
20260505184750 55 0.0 0.0 0.00 0.00 0.00 10 1014.5
20260505183747 55 0.0 0.0 0.00 0.00 0.00 10 1014.5
20260505182746 56 0.0 0.0 0.00 0.00 0.00 10 1014.4
20260505181744 56 0.0 0.0 0.00 0.00 0.00 10 1014.3
20260505180742 56 0.0 0.0 0.00 0.00 0.00 10 1014.4
20260505175740 56 0.0 0.0 0.00 0.00 0.00 10 1014.5
20260505174738 57 0.0 0.0 0.00 0.00 0.00 10 1014.6
20260505173736 57 0.0 0.0 0.00 0.00 0.00 10 1014.6
20260505172734 57 0.0 0.0 0.00 0.00 0.00 10 1014.6
20260505171732 58 0.0 0.0 0.00 0.00 0.00 10 1014.4
20260505170730 58 0.0 0.0 0.00 0.00 0.00 10 1014.5
20260505165728 58 0.0 0.0 0.00 0.00 0.00 10 1014.5
20260505164726 59 0.0 0.0 0.00 0.00 0.00 10 1014.6
20260505163724 59 0.0 0.0 0.00 0.00 0.00 10 1014.5
20260505162722 60 0.0 0.0 0.00 0.00 0.00 10 1014.4
20260505161720 60 0.0 0.0 0.00 0.00 0.00 10 1014.4
20260505160719 59 0.0 0.0 0.00 0.00 0.00 10 1014.5
20260505152710 62 0.0 0.0 0.00 0.00 0.00 10 1014.2
20260505151708 62 0.0 0.0 0.00 0.00 0.00 10 1014.0
20260505150706 59 0.0 0.0 0.00 0.00 0.00 10 1014.6
20260505124642 60 0.0 0.0 0.00 0.00 0.00 10 1014.7
20260505123639 60 0.0 0.0 0.00 0.00 0.00 10 1014.8
20260505122638 61 0.0 0.0 0.00 0.00 0.00 10 1014.6
20260505121636 62 0.0 0.0 0.00 0.00 0.00 10 1014.6
20260505120634 63 0.0 0.0 0.00 0.00 0.00 10 1014.4
20260505115632 60 0.0 0.0 0.00 0.00 0.00 10 1014.7
20260505114630 59 0.0 0.0 0.00 0.00 0.00 10 1014.9
20260505113628 59 0.0 0.0 0.00 0.00 0.00 10 1015.0
20260505112627 59 0.0 0.0 0.00 0.00 0.00 10 1014.8
20260505111625 60 0.0 0.0 0.00 0.00 0.00 10 1014.9
20260505110623 59 0.0 0.0 0.00 0.00 0.00 10 1014.8
20260505101612 58 0.0 0.0 0.00 0.00 0.00 10 1015.1
20260505100610 57 0.0 0.0 0.00 0.00 0.00 10 1015.0
20260505095609 57 0.0 0.0 0.00 0.00 0.00 10 1015.2
20260505094607 58 0.0 0.0 0.00 0.00 0.00 10 1015.0
20260505093605 57 0.0 0.0 0.00 0.00 0.00 10 1015.1
20260505092604 57 0.0 0.0 0.00 0.00 0.00 10 1015.1
20260505091601 58 0.0 0.0 0.00 0.00 0.00 10 1015.0
20260505090559 58 0.0 0.0 0.00 0.00 0.00 10 1015.0
20260505085558 58 0.0 0.0 0.00 0.00 0.00 10 1014.7
20260505084555 58 0.0 0.0 0.00 0.00 0.00 10 1014.7
20260505083554 59 0.0 0.0 0.00 0.00 0.00 10 1014.5
20260505082552 58 0.0 0.0 0.00 0.00 0.00 10 1014.5
20260505081550 58 0.0 0.0 0.00 0.00 0.00 10 1014.6
20260505080548 58 0.0 0.0 0.00 0.00 0.00 10 1014.6
20260505075546 59 0.0 0.0 0.00 0.00 0.00 10 1014.4
20260505074544 58 0.0 0.0 0.00 0.00 0.00 10 1014.5
20260505073542 56 0.0 0.0 0.00 0.00 0.00 10 1014.6
20260505072540 56 0.0 0.0 0.00 0.00 0.00 10 1015.1
20260505071538 57 0.0 0.0 0.00 0.00 0.00 10 1014.0
20260505070536 57 0.0 0.0 0.00 0.00 0.00 10 1014.0
20260505065534 57 0.0 0.0 0.00 0.00 0.00 10 1014.0
20260505064532 57 0.0 0.0 0.00 0.00 0.00 10 1013.8
20260505063530 56 0.0 0.0 0.00 0.00 0.00 10 1013.8
20260505062528 57 0.0 0.0 0.00 0.00 0.00 10 1013.7
20260505061526 56 0.0 0.0 0.00 0.00 0.00 10 1013.8
20260505060524 56 0.0 0.0 0.00 0.00 0.00 10 1013.8
20260505055522 56 0.0 0.0 0.00 0.00 0.00 10 1013.6
20260505054520 55 0.0 0.0 0.00 0.00 0.00 10 1013.6
20260505053518 55 0.0 0.0 0.00 0.00 0.00 10 1013.5
20260505052516 54 0.0 0.0 0.00 0.00 0.00 10 1013.5
20260505051514 54 0.0 0.0 0.00 0.00 0.00 10 1013.5
20260505050512 54 0.0 0.0 0.00 0.00 0.00 10 1013.3
20260505041501 53 0.0 0.0 0.00 0.00 0.00 10 1013.6
20260505040459 54 0.0 0.0 0.00 0.00 0.00 10 1013.5
20260505035457 53 0.0 0.0 0.00 0.00 0.00 10 1013.5
20260505034456 53 0.0 0.0 0.00 0.00 0.00 10 1013.9
20260505033454 54 0.0 0.0 0.00 0.00 0.00 10 1013.6
20260505032452 53 0.0 0.0 0.00 0.00 0.00 10 1013.5
20260505031450 53 0.0 0.0 0.00 0.00 0.00 10 1014.8
20260505030448 53 0.0 0.0 0.00 0.00 0.00 10 1015.0
20260505025445 53 0.0 0.0 0.00 0.00 0.00 10 1014.8
20260505024444 52 0.0 0.0 0.00 0.00 0.00 10 1015.0
20260505023442 53 0.0 0.0 0.00 0.00 0.00 10 1015.3
20260505022439 53 0.0 0.0 0.00 0.00 0.00 10 1015.1
20260505021438 54 0.0 0.0 0.00 0.00 0.00 10 1015.1
20260505020436 54 0.0 0.0 0.00 0.00 0.00 10 1015.0
20260505015434 54 0.0 0.0 0.00 0.00 0.00 10 1014.7
20260505014432 54 0.0 0.0 0.00 0.00 0.00 10 1014.6
20260505013430 53 0.0 0.0 0.00 0.00 0.00 10 1015.1
20260505012428 53 0.0 0.0 0.00 0.00 0.00 10 1015.4
20260505011426 53 0.0 0.0 0.00 0.00 0.00 10 1015.7
20260505010424 54 0.0 0.0 0.00 0.00 0.00 10 1016.0
20260505005423 53 0.0 0.0 0.00 0.00 0.00 10 1016.0
20260505004421 53 0.0 0.0 0.00 0.00 0.00 10 1016.2
20260505003419 53 0.0 0.0 0.00 0.00 0.00 10 1016.4
20260505002417 54 0.0 0.0 0.00 0.00 0.00 10 1016.6
20260505001415 54 0.0 0.0 0.00 0.00 0.00 10 1016.5
20260505000413 54 0.0 0.0 0.00 0.00 0.00 10 1016.7
20260504235412 53 0.0 0.0 0.00 0.00 0.00 10 1016.9
20260504234410 53 0.0 0.0 0.00 0.00 0.00 10 1017.1
20260504233407 53 0.0 0.0 0.00 0.00 0.00 10 1017.3
20260504232405 53 0.0 0.0 0.00 0.00 0.00 10 1017.4
20260504231403 53 0.0 0.0 0.00 0.00 0.00 10 1017.6
20260504230401 53 0.0 0.0 0.00 0.00 0.00 10 1017.7
20260504225359 53 0.0 0.0 0.00 0.00 0.00 10 1017.9
20260504224357 53 0.0 0.0 0.00 0.00 0.00 10 1018.2